[[{"header":{"parameterUnit":"m.s-1","parameterCategory":1,"la1":30.2991,"la2":30.254,"lo1":-89.0895,"lo2":-89.0444,"dy":0.0017,"dx":0.0017,"nx":28,"ny":28,"refTime":"2024-03-24T03:00:00:Z","depth":0,"parameterNumber":2,"parameterNumberName":"U-component_of_WINDS"},"data":[0,0,0,0,0,0,0,0,0,0,0,0,0,0,0,0,0,0,0,0,0,0,0,0,0,0,0,0,0,0,0,0,0,0,0,0,0,0,0,0,0,0,0,0,0,0,0,0,0,0,0,0,0,0,0,0,0,0,-8.5259,-8.5263,0,-8.5592,-8.5596,-8.5599,-8.5721,-8.572,-8.5719,-8.5718,-8.6058,-8.6068,-8.6078,0,0,0,0,0,0,0,0,0,0,0,0,0,-8.4728,-8.4737,-8.5259,-8.5263,-8.5267,-8.5591,-8.5596,-8.56,-8.5722,-8.572,-8.5719,-8.5718,-8.6055,-8.6067,-8.6079,0,0,0,0,0,0,0,0,0,0,0,0,0,-8.4999,-8.474,-8.5258,-8.5367,-8.538,-8.559,-8.5596,-8.5602,-8.5722,-8.572,-8.5719,-8.5717,-8.6051,-8.6065,-8.608,-8.6207,0,0,-8.6127,-8.6133,0,0,0,0,0,0,0,0,-8.4984,-8.5019,-8.5347,-8.536,-8.5375,-8.5614,-8.5534,-8.5805,-8.5722,-8.5592,-8.5718,-8.5716,-8.5911,-8.5938,-8.6004,-8.6223,-8.6237,-8.6128,-8.6137,-8.6144,-8.6148,0,0,0,0,0,0,0,-8.4965,-8.5005,-8.5391,-8.5351,-8.5368,-8.5399,-8.5436,-8.5585,-8.5757,-8.5603,-8.5613,-8.5651,-8.5919,-8.5989,-8.6013,-8.6242,-8.6127,-8.6141,-8.615,-8.6156,-8.6583,-8.6585,0,0,0,0,0,0,-8.4928,-8.4988,-8.538,-8.5401,-8.5171,-8.541,-8.5451,-8.5538,-8.5756,-8.5787,-8.5652,-8.5655,-8.5964,-8.5995,-8.6025,-8.6188,-8.6143,-8.6158,-8.6166,-8.6581,-8.6583,-8.6586,0,0,0,0,0,0,-8.4916,-8.4962,-8.5367,-8.5197,-8.5251,-8.5421,-8.5518,-8.5546,-8.5616,-8.5792,-8.5823,-8.5692,-8.5964,-8.6004,-8.6161,-8.6201,-8.6164,-8.6178,-8.6578,-8.6582,-8.6585,-8.6513,0,0,0,0,0,0,-8.49,-8.4957,-8.5006,-8.5198,-8.526,-8.5496,-8.5521,-8.5554,-8.5642,-8.565,-8.5838,-8.5868,-8.5966,-8.6138,-8.6176,-8.6221,-8.619,-8.6575,-8.658,-8.6584,-8.6512,-8.6513,-8.6514,0,0,0,0,0,-8.4881,-8.4972,-8.5008,-8.5055,-8.5325,-8.5498,-8.5534,-8.5645,-8.5645,-8.5696,-8.581,-8.5862,-8.6191,-8.6153,-8.6197,-8.6247,-8.6573,-8.6578,-8.6583,-8.6512,-8.6513,-8.6514,0,0,0,0,0,0,-8.478,-8.4999,-8.5041,-8.5198,-8.5329,-8.5519,-8.5586,-8.5643,-8.5776,-8.5777,-8.5909,-8.5951,-8.6097,-8.6189,-8.6142,-8.6382,-8.6385,-8.64,-8.6316,-8.6319,-8.6319,-8.6293,-8.6203,0,0,0,0,0,-8.4777,-8.4899,-8.5084,-8.5204,-8.5268,-8.5415,-8.5495,-8.5569,-8.571,-8.5766,-8.5891,-8.6025,-8.6159,-8.6245,-8.6378,-8.6527,-8.657,-8.6584,-8.6584,-8.6584,-8.6594,-8.668,-8.6688,-8.6603,-8.6603,-8.6603,0,0,-8.4769,-8.4904,-8.4973,-8.5187,-8.5297,-8.5421,-8.5461,-8.559,-8.5683,-8.5786,-8.5941,-8.6038,-8.6197,-8.635,-8.6425,-8.6431,-8.6628,-8.6591,-8.6589,-8.66,-8.6686,-8.6694,-8.6701,-8.6606,-8.6605,-8.6605,0,0,-8.4819,-8.4934,-8.5047,-8.5157,-8.5323,-8.5422,-8.5448,-8.5631,-8.5699,-8.5858,-8.5938,-8.6051,-8.6278,-8.6388,-8.6474,-8.6568,-8.6621,-8.6608,-8.6611,-8.6693,-8.67,-8.6707,-8.6739,-8.6749,-8.6617,-8.6617,-8.6617,0,-8.4789,-8.4979,-8.5097,-8.5222,-8.5314,-8.5414,-8.5528,-8.5629,-8.583,-8.5891,-8.5896,-8.6185,-8.6299,-8.648,-8.6503,-8.657,-8.6604,-8.6585,-8.669,-8.6698,-8.6705,-8.6738,-8.675,-8.6614,-8.6615,-8.6615,-8.6615,0,-8.4933,-8.5063,-8.5134,-8.5326,-8.5426,-8.5545,-8.5682,-8.5769,-8.5835,-8.5933,-8.6093,-8.6235,-8.6398,-8.6447,-8.6513,-8.6638,-8.6636,-8.6664,-8.667,-8.6709,-8.6741,-8.6755,-8.661,-8.6611,-8.6612,-8.6613,0,0,-8.4926,-8.5184,-8.5207,-8.5296,-8.5488,-8.5591,-8.5716,-8.5876,-8.5947,-8.6084,-8.6191,-8.6382,-8.641,-8.6507,-8.6587,-8.6659,-8.6723,-8.6678,-8.6684,-8.668,-8.6869,-8.6845,-8.6857,-8.6761,-8.6764,-8.6766,-8.6855,0,-8.5,-8.5226,-8.5337,-8.5514,-8.5636,-8.5734,-8.5842,-8.5971,-8.6067,-8.6184,-8.629,-8.6423,-8.6449,-8.6509,-8.6585,-8.6699,-8.6762,-8.6694,-8.6861,-8.6865,-8.6815,-8.6875,-8.685,-8.6927,-8.6869,-8.6871,-8.6873,0,-8.5116,-8.5251,-8.544,-8.5619,-8.5675,-8.577,-8.5926,-8.6037,-8.6187,-8.6251,-8.636,-8.6438,-8.6573,-8.6571,-8.6759,-8.671,-8.6785,-8.6852,-8.6857,-8.6875,-8.6869,-8.6892,-8.6955,-8.6965,-8.6894,-8.6892,-8.6891,0,-8.509,-8.532,-8.5463,-8.5536,-8.5749,-8.5813,-8.5905,-8.6053,-8.6142,-8.6279,-8.6339,-8.6489,-8.6571,-8.6686,-8.6803,-8.6791,-8.6979,-8.6987,-8.7036,-8.7032,-8.7069,-8.7064,-8.7141,-8.712,-8.712,-8.712,-8.7119,0,-8.5159,-8.5271,-8.5455,-8.5542,-8.567,-8.5798,-8.5921,-8.602,-8.6152,-8.626,-8.6355,-8.6455,-8.6604,-8.6724,-8.6816,-8.6957,-8.6994,-8.7049,-8.7072,-8.704,-8.7032,-8.7089,-8.7086,-8.7123,-8.7122,-8.7122,-8.7121,0,-8.5151,-8.5278,-8.5441,-8.5629,-8.5679,-8.5765,-8.5926,-8.6015,-8.6116,-8.6253,-8.6292,-8.6451,-8.6596,-8.6725,-8.6917,-8.6979,-8.7123,-8.7152,-8.7072,-8.7084,-8.7124,-8.7118,-8.7239,-8.7261,-8.7225,-8.7226,-8.7226,0,-8.5185,-8.5274,-8.5471,-8.5551,-8.5641,-8.5768,-8.5861,-8.599,-8.6082,-8.626,-8.6327,-8.648,-8.6608,-8.6836,-8.6968,-8.7116,-8.7149,-8.7181,-8.7171,-8.7136,-8.7148,-8.714,-8.7149,-8.7179,-8.7179,-8.7179,-8.7179,0,-8.5233,-8.5292,-8.5421,-8.5573,-8.568,-8.5805,-8.5934,-8.5994,-8.6147,-8.6246,-8.6396,-8.6495,-8.6693,-8.6842,-8.7005,-8.71,-8.7165,-8.7181,-8.72,-8.7167,-8.7116,-8.7143,-8.7068,-8.7177,-8.7177,-8.7178,-8.7178,-8.7178,-8.5247,-8.533,-8.5482,-8.5623,-8.5733,-8.5851,-8.5944,-8.6057,-8.6184,-8.6354,-8.6423,-8.6575,-8.6725,-8.695,-8.7045,-8.7167,-8.7178,-8.7205,-8.7212,-8.7216,-8.721,-8.7098,-8.7197,-8.7197,-8.7198,-8.7198,-8.7198,0,-8.5298,-8.5401,-8.553,-8.5706,-8.5817,-8.587,-8.6015,-8.6104,-8.6236,-8.637,-8.6495,-8.6667,-8.6814,-8.6958,-8.7112,-8.7182,-8.7215,-8.7218,-8.7213,-8.7234,-8.7192,-8.7159,-8.7188,-8.7188,-8.7188,-8.7188,-8.7188,-8.7188,-8.5338,-8.5481,-8.5558,-8.5757,-8.586,-8.6009,-8.6088,-8.6197,-8.6305,-8.6493,-8.6615,-8.6708,-8.6847,-8.7012,-8.7149,-8.7188,-8.724,-8.7233,-8.728,-8.7237,-8.7237,-8.7236,-8.7206,-8.7244,-8.7244,-8.7312,-8.7313,-8.7313]},{"header":{"parameterUnit":"m.s-1","parameterCategory":1,"la1":30.2991,"la2":30.254,"lo1":-89.0895,"lo2":-89.0444,"dy":0.0017,"dx":0.0017,"nx":28,"ny":28,"refTime":"2024-03-24T03:00:00:Z","depth":0,"parameterNumber":3,"parameterNumberName":"V-component_of_WINDS"},"data":[0,0,0,0,0,0,0,0,0,0,0,0,0,0,0,0,0,0,0,0,0,0,0,0,0,0,0,0,0,0,0,0,0,0,0,0,0,0,0,0,0,0,0,0,0,0,0,0,0,0,0,0,0,0,0,0,0,0,5.2846,5.2848,0,5.2969,5.297,5.2971,5.3002,5.3001,5.3,5.2999,5.3125,5.3129,5.3133,0,0,0,0,0,0,0,0,0,0,0,0,0,5.2641,5.2645,5.2846,5.2848,5.2849,5.2968,5.297,5.2972,5.3002,5.3001,5.3,5.2999,5.3123,5.3128,5.3133,0,0,0,0,0,0,0,0,0,0,0,0,0,5.2743,5.2646,5.2846,5.2879,5.2883,5.2968,5.297,5.2972,5.3002,5.3001,5.2999,5.2998,5.3122,5.3128,5.3134,5.3195,0,0,5.3152,5.3155,0,0,0,0,0,0,0,0,5.2738,5.2751,5.2872,5.2877,5.2881,5.2969,5.2944,5.3047,5.3002,5.2957,5.2999,5.2998,5.3074,5.3084,5.3109,5.3201,5.3207,5.3153,5.3157,5.3159,5.3161,0,0,0,0,0,0,0,5.273,5.2746,5.2895,5.2874,5.288,5.2888,5.2901,5.2963,5.302,5.2961,5.2963,5.2977,5.3076,5.3103,5.3112,5.3208,5.3153,5.3158,5.3162,5.3164,5.336,5.3362,0,0,0,0,0,0,5.2717,5.274,5.2891,5.2898,5.2805,5.2893,5.2907,5.2942,5.302,5.3031,5.2978,5.2978,5.3093,5.3105,5.3117,5.3197,5.3159,5.3165,5.3169,5.3359,5.336,5.3362,0,0,0,0,0,0,5.2713,5.2731,5.2886,5.282,5.284,5.2897,5.2936,5.2945,5.2972,5.3033,5.3043,5.2995,5.3093,5.3108,5.3176,5.3201,5.3168,5.3173,5.3357,5.3359,5.3361,5.3355,0,0,0,0,0,0,5.2707,5.2729,5.2752,5.282,5.2844,5.2943,5.2937,5.2948,5.2983,5.2984,5.3052,5.3062,5.3093,5.3167,5.3182,5.3209,5.3178,5.3355,5.3358,5.3361,5.3353,5.3356,5.3359,0,0,0,0,0,5.2699,5.2745,5.2753,5.2771,5.2874,5.2944,5.2957,5.2992,5.2984,5.3009,5.3049,5.306,5.3196,5.3174,5.3191,5.322,5.3353,5.3357,5.336,5.3351,5.3356,5.3359,0,0,0,0,0,0,5.2679,5.2754,5.2764,5.2833,5.2882,5.2949,5.2981,5.2995,5.3047,5.3046,5.3087,5.3102,5.3168,5.3201,5.3175,5.3285,5.3275,5.3282,5.3262,5.3266,5.3269,5.3261,5.3183,0,0,0,0,0,5.2682,5.2732,5.2795,5.285,5.2874,5.2923,5.2955,5.2978,5.303,5.3051,5.3095,5.3145,5.32,5.3234,5.3287,5.3357,5.3374,5.3386,5.3389,5.3391,5.3398,5.344,5.3446,5.3373,5.3373,5.3373,0,0,5.2689,5.2737,5.2766,5.2847,5.2888,5.294,5.294,5.2994,5.3034,5.3059,5.3126,5.3161,5.322,5.329,5.3322,5.3319,5.3421,5.3396,5.3397,5.3402,5.3444,5.3451,5.3457,5.3376,5.3375,5.3375,0,0,5.273,5.277,5.2821,5.2862,5.2923,5.2956,5.2968,5.3034,5.3058,5.3126,5.3146,5.3194,5.3286,5.3328,5.3361,5.342,5.3433,5.3436,5.3453,5.3494,5.3499,5.3505,5.3528,5.3535,5.3441,5.3441,5.3441,0,5.2732,5.2811,5.2846,5.29,5.2936,5.2961,5.3014,5.3052,5.3127,5.3152,5.3147,5.3264,5.3306,5.3387,5.3401,5.3427,5.3444,5.3429,5.3496,5.3501,5.3507,5.353,5.3538,5.3441,5.3441,5.3441,5.3441,0,5.2811,5.2865,5.2899,5.2972,5.3012,5.3065,5.3109,5.3145,5.3165,5.3198,5.3269,5.3319,5.3384,5.3405,5.3424,5.349,5.3486,5.3487,5.3478,5.3513,5.3536,5.3544,5.3441,5.3441,5.3441,5.3441,0,0,5.2843,5.2935,5.2947,5.2982,5.3052,5.3095,5.315,5.3213,5.3245,5.3296,5.3344,5.3422,5.3425,5.3463,5.3487,5.3522,5.3568,5.352,5.3522,5.3529,5.3647,5.3647,5.3656,5.3577,5.3578,5.358,5.3642,0,5.2894,5.2993,5.3027,5.3109,5.3161,5.3186,5.3234,5.3283,5.3316,5.3365,5.3402,5.3457,5.3455,5.3479,5.3514,5.3555,5.3593,5.355,5.3624,5.3626,5.361,5.3667,5.3667,5.3724,5.3651,5.3652,5.3653,0,5.2968,5.3021,5.3108,5.3174,5.3197,5.3239,5.3302,5.3348,5.3404,5.3426,5.3469,5.3491,5.355,5.3536,5.362,5.3591,5.3623,5.3647,5.365,5.366,5.3643,5.3681,5.3742,5.3752,5.3667,5.3666,5.3665,0,5.2985,5.3078,5.3144,5.3172,5.3249,5.3279,5.3312,5.3367,5.3404,5.3458,5.3483,5.3543,5.3577,5.3624,5.3662,5.3647,5.3743,5.3731,5.3765,5.3764,5.3785,5.3784,5.3855,5.3802,5.3802,5.3802,5.3801,0,5.3041,5.3094,5.3153,5.3193,5.3254,5.3293,5.3352,5.3387,5.3436,5.3485,5.3509,5.3554,5.3601,5.3652,5.3682,5.3749,5.3763,5.3783,5.3791,5.3783,5.3781,5.3806,5.3804,5.3804,5.3803,5.3803,5.3803,0,5.3071,5.3113,5.3186,5.3253,5.3271,5.3313,5.3371,5.3412,5.3446,5.3507,5.3524,5.3577,5.364,5.3682,5.3761,5.3781,5.3854,5.386,5.3835,5.384,5.3872,5.3869,5.3963,5.3979,5.3913,5.3913,5.3914,0,5.3105,5.3147,5.3219,5.3253,5.3287,5.3341,5.3379,5.3419,5.3458,5.3526,5.3559,5.3622,5.3676,5.3774,5.3821,5.3882,5.3891,5.392,5.39,5.3891,5.3895,5.3893,5.3898,5.3924,5.3924,5.3924,5.3925,0,5.3162,5.3181,5.3234,5.3295,5.334,5.339,5.344,5.3467,5.3516,5.3558,5.3622,5.3663,5.3745,5.3809,5.3875,5.391,5.3927,5.393,5.3942,5.3935,5.392,5.3931,5.3846,5.3928,5.3928,5.3928,5.3928,5.3927,5.3198,5.3237,5.3294,5.3353,5.3395,5.3442,5.3484,5.3523,5.3577,5.3647,5.3667,5.3734,5.3791,5.3881,5.3918,5.3972,5.3969,5.3985,5.399,5.3994,5.3995,5.3909,5.3984,5.3984,5.3983,5.3983,5.3983,0,5.3258,5.3296,5.335,5.342,5.3467,5.3477,5.3534,5.3573,5.3632,5.3683,5.3735,5.381,5.3872,5.3923,5.3988,5.4021,5.4031,5.4037,5.4036,5.4045,5.3992,5.3977,5.4029,5.4029,5.4029,5.4029,5.4029,5.4029,5.3295,5.3363,5.3388,5.3477,5.3515,5.3581,5.3613,5.3657,5.3698,5.378,5.3832,5.3865,5.3917,5.3986,5.4044,5.4058,5.4082,5.4087,5.4103,5.4053,5.4048,5.4043,5.403,5.4091,5.4091,5.4151,5.4152,5.4152]}]]